This demonstration page uses our WeatherBlox Daily Observations layout. Learn more.

Hourly Observations for October 4, 2018

Temp ( °F °C ) Dew Point ( °F °C ) Humidity (%) Winds ( mph kmh ) Pressure ( in mb ) Visibility ( mi km ) Precip ( " mm )
12:15 am 00:15 Clear 48 8.7 37 3 68 68 NNE 20 31 30.15 1021 10 16.09344 0 0
12:35 am 00:35 Clear 47 8.2 37 2.7 69 69 NNE 23 37 30.15 1021 10 16.09344 0 0
12:55 am 00:55 Clear 46 7.7 36 2.1 68 68 N 16 26 30.15 1021 10 16.09344 0 0
1:15 am 01:15 Clear 45 7.2 36 2 70 70 NNE 25 41 30.15 1021 10 16.09344 0 0
1:35 am 01:35 Clear 44 6.5 35 1.5 71 71 N 21 33 30.18 1022 10 16.09344 0 0
1:55 am 01:55 Clear 43 6.2 33 0.8 69 69 NNE 20 31 30.21 1023 10 16.09344 0 0
2:15 am 02:15 Clear 43 5.9 33 0.7 70 70 N 22 35 30.21 1023 10 16.09344 0 0
2:35 am 02:35 Clear 42 5.8 34 1 72 72 N 21 33 30.24 1024 10 16.09344 0 0
2:55 am 02:55 Clear 42 5.7 34 1.1 73 73 NNE 18 30 30.24 1024 10 16.09344 0 0
3:15 am 03:15 Partly Cloudy 42 5.5 33 0.6 71 71 NNE 13 20 30.27 1025 10 16.09344 0 0
3:35 am 03:35 Clear 41 5.1 32 0 70 70 NNE 16 26 30.27 1025 10 16.09344 0 0
3:55 am 03:55 Partly Cloudy 41 5 32 -0.2 69 69 NNE 18 30 30.27 1025 10 16.09344 0 0
4:15 am 04:15 Partly Cloudy 40 4.7 29 -1.7 64 64 NE 20 31 30.3 1026 10 16.09344 0 0
4:35 am 04:35 Mostly Cloudy 40 4.5 29 -1.4 66 66 NE 18 30 30.3 1026 10 16.09344 0 0
4:55 am 04:55 Mostly Cloudy 40 4.4 30 -1 68 68 NNE 18 30 30.3 1026 10 16.09344 0 0
5:15 am 05:15 Mostly Cloudy 39 4.1 29 -1.5 67 67 NNE 18 30 30.3 1026 10 16.09344 0 0
5:35 am 05:35 Partly Cloudy 39 4 29 -1.6 67 67 NNE 14 22 30.33 1027 10 16.09344 0 0
5:55 am 05:55 Clear 39 3.7 29 -1.7 68 68 NNE 17 28 30.33 1027 10 16.09344 0 0
6:15 am 06:15 Clear 38 3.6 29 -1.8 68 68 NNE 20 31 30.3 1026 10 16.09344 0 0
6:35 am 06:35 Partly Cloudy 38 3.3 28 -2.3 67 67 NNE 20 31 30.3 1026 10 16.09344 0 0
6:55 am 06:55 Mostly Cloudy 38 3.2 28 -2.5 67 67 NNE 18 30 30.3 1026 10 16.09344 0 0
7:15 am 07:15 Cloudy 38 3.2 28 -2.5 67 67 NE 14 22 30.33 1027 10 16.09344 0 0
7:35 am 07:35 Cloudy 38 3.2 28 -2.3 68 68 NNE 15 24 30.3 1026 10 16.09344 0 0
7:55 am 07:55 Mostly Cloudy 38 3.1 28 -2.3 68 68 NE 21 33 30.3 1026 10 16.09344 0 0
8:15 am 08:15 Mostly Cloudy 37 3 28 -2.5 67 67 NNE 18 30 30.3 1026 10 16.09344 0 0
8:35 am 08:35 Cloudy with Light Drizzle 37 3 28 -2.4 68 68 NNE 16 26 30.33 1027 10 16.09344 0 0
8:55 am 08:55 Cloudy 37 2.9 29 -1.9 71 71 NE 16 26 30.33 1027 10 16.09344 0 0
9:15 am 09:15 Cloudy with Light Rain 37 2.6 31 -0.5 80 80 NE 13 20 30.33 1027 10 16.09344 0 0
9:35 am 09:35 Cloudy 37 2.9 32 0 81 81 NNE 12 19 30.33 1027 10 16.09344 0 0
9:55 am 09:55 Cloudy 38 3.2 31 -0.7 76 76 NE 15 24 30.33 1027 10 16.09344 0 0
10:15 am 10:15 Cloudy with Light Rain 37 3 30 -1.1 75 75 ENE 13 20 30.33 1027 10 16.09344 0 0
10:35 am 10:35 Cloudy with Light Rain 37 3 31 -0.5 78 78 ENE 10 17 30.33 1027 10 16.09344 0 0
10:55 am 10:55 Cloudy with Heavy Rain 37 2.7 32 -0.1 82 82 NE 10 17 30.33 1027 4 6.437376 0.03 0.762
11:15 am 11:15 Cloudy with Heavy Rain 36 2 32 0.2 88 88 NE 10 17 30.33 1027 2 3.218688 0.16 4.064
11:35 am 11:35 Cloudy with Rain 36 2 33 0.6 91 91 NNE 9 15 30.33 1027 2.5 4.02336 0.21 5.334
11:55 am 11:55 Cloudy with Rain 36 2.1 34 1 93 93 ENE 9 15 30.3 1026 2.5 4.02336 0.26 6.604
12:15 pm 12:15 Cloudy 36 2.2 33 0.8 91 91 NNE 8 13 30.3 1026 10 16.09344 0 0
12:35 pm 12:35 Cloudy 36 2.3 33 0.7 89 89 NNE 10 17 30.27 1025 10 16.09344 0 0
12:55 pm 12:55 Cloudy 36 2.4 33 0.4 87 87 NNE 10 17 30.27 1025 10 16.09344 0 0
1:15 pm 13:15 Cloudy 37 2.6 34 1.3 91 91 NNE 10 17 30.24 1024 10 16.09344 0 0
1:35 pm 13:35 Cloudy 37 2.5 33 0.8 89 89 NE 10 17 30.24 1024 10 16.09344 0 0
1:55 pm 13:55 Cloudy 37 2.6 34 1 89 89 NE 10 17 30.21 1023 10 16.09344 0 0
2:15 pm 14:15 Cloudy 37 2.5 33 0.6 87 87 NNE 10 17 30.21 1023 10 16.09344 0 0
2:35 pm 14:35 Cloudy with Light Rain 37 2.5 34 0.9 89 89 ENE 9 15 30.21 1023 10 16.09344 0 0
2:55 pm 14:55 Cloudy 37 2.6 34 1.1 90 90 ENE 7 11 30.21 1023 10 16.09344 0 0
3:15 pm 15:15 Cloudy with Drizzle 37 2.6 35 1.5 93 93 NE 8 13 30.21 1023 10 16.09344 0.01 0.254
3:35 pm 15:35 Cloudy 37 2.5 35 1.5 93 93 NE 8 13 30.21 1023 10 16.09344 0.01 0.254
3:55 pm 15:55 Cloudy 37 2.6 35 1.9 95 95 NNE 7 11 30.21 1023 10 16.09344 0.01 0.254
4:15 pm 16:15 Cloudy 37 2.9 36 2.1 95 95 ENE 8 13 30.18 1022 7 11.265408 0 0
4:35 pm 16:35 Cloudy 37 2.7 36 2.2 97 97 NE 6 9 30.18 1022 7 11.265408 0 0
4:55 pm 16:55 Cloudy 37 2.7 36 2.3 97 97 NE 7 11 30.18 1022 10 16.09344 0 0
5:15 pm 17:15 Cloudy 37 3 37 2.5 97 97 NE 7 11 30.15 1021 10 16.09344 0 0
5:35 pm 17:35 Cloudy 38 3.1 37 2.6 97 97 NE 6 9 30.15 1021 10 16.09344 0 0
5:55 pm 17:55 Cloudy 38 3.1 37 2.7 97 97 NE 6 9 30.15 1021 10 16.09344 0 0
6:15 pm 18:15 Cloudy 38 3.1 37 2.6 97 97 ENE 6 9 30.15 1021 10 16.09344 0 0
6:35 pm 18:35 Cloudy 38 3.2 37 2.9 98 98 E 9 15 30.09 1019 10 16.09344 0 0
6:55 pm 18:55 Cloudy 38 3.3 37 3 98 98 E 6 9 30.09 1019 10 16.09344 0 0
7:15 pm 19:15 Cloudy 38 3.5 38 3.1 97 97 ENE 3 6 30.09 1019 10 16.09344 0 0
7:35 pm 19:35 Cloudy 38 3.5 38 3.2 98 98 Calm 30.12 1020 10 16.09344 0 0
7:55 pm 19:55 Cloudy 38 3.6 38 3.3 98 98 Calm 30.12 1020 10 16.09344 0 0
8:15 pm 20:15 Cloudy 39 3.7 38 3.4 98 98 WNW 3 6 30.12 1020 10 16.09344 0 0
8:35 pm 20:35 Cloudy with Mist and Fog 38 3.5 38 3.5 100 100 NW 5 7 30.12 1020 3 4.828032 0 0
8:55 pm 20:55 Cloudy with Mist and Fog 38 3.5 38 3.5 100 100 Calm 30.12 1020 3 4.828032 0 0
9:15 pm 21:15 Cloudy with Mist and Fog 38 3.5 38 3.5 100 100 Calm 30.12 1020 3 4.828032 0 0
9:35 pm 21:35 Cloudy with Mist and Fog 39 3.7 39 3.7 100 100 SE 10 17 30.09 1019 5 8.04672 0 0
9:55 pm 21:55 Cloudy 39 4 39 4 100 100 SSE 7 11 30.09 1019 10 16.09344 0 0
10:15 pm 22:15 Cloudy 39 4 39 4 100 100 SSE 10 17 30.06 1018 10 16.09344 0 0
10:35 pm 22:35 Partly Cloudy 38 3.6 38 3.6 100 100 S 3 6 30.09 1019 10 16.09344 0 0
10:55 pm 22:55 Clear 38 3.3 38 3.3 100 100 SSE 5 7 30.06 1018 10 16.09344 0 0
11:15 pm 23:15 Clear 38 3.2 38 3.2 100 100 Calm 30.06 1018 10 16.09344 0 0
11:35 pm 23:35 Partly Cloudy 38 3.1 38 3.1 100 100 S 3 6 30.06 1018 10 16.09344 0 0
11:55 pm 23:55 Clear 37 3 37 3 100 100 Calm 30.06 1018 7 11.265408 0 0

Powered by AerisWeather